Location: Dąbrowa Miętka
(51.3714°N, 18.6370°E)
Time: 11:17:34
(UTC+02:00)

ISS - Pass Details

Date: 28 January 2019
Orbit: 411 x 421 km, 51.6° (Epoch: 16 October)

Event Time Altitude Azimuth Distance (km) Brightness Sun altitude
Rises 19:06:47 0° 268° (W) 2,373 1.5 -24.7°
Reaches altitude 10° 19:08:53 10° 269° (W) 1,509 0.1 -25.0°
Enters shadow 19:10:53 33° 272° (W) 733 -2.0 -25.3°
